| time (UTC) | temp F | wind direction | speed MPH | gust MPH | rain 1hr in | rain 24hr in | rain mn in | humidity % | barometer mb |
| 20260507014512 | 60 | 120 | 4.0 | 8.0 | 0.00 | 0.00 | 0.00 | 28 | 1013.7 |
| 20260507013008 | 61 | 134 | 0.0 | 7.0 | 0.00 | 0.00 | 0.00 | 28 | 1013.7 |
| 20260507011516 | 61 | 136 | 3.0 | 6.0 | 0.00 | 0.00 | 0.00 | 27 | 1013.9 |
| 20260507010004 | 61 | 113 | 3.0 | 7.0 | 0.00 | 0.00 | 0.00 | 26 | 1014.1 |
| 20260507004501 | 61 | 136 | 0.0 | 6.0 | 0.00 | 0.00 | 0.00 | 25 | 1014.1 |
| 20260507003001 | 62 | 92 | 2.0 | 7.0 | 0.00 | 0.00 | 0.00 | 24 | 1014.3 |
| 20260507001605 | 61 | 132 | 2.0 | 10.0 | 0.00 | 0.00 | 0.00 | 23 | 1014.5 |
| 20260507000056 | 61 | 129 | 3.0 | 9.0 | 0.00 | 0.00 | 0.00 | 22 | 1014.7 |
| 20260506234605 | 62 | 130 | 1.0 | 6.0 | 0.00 | 0.00 | 0.00 | 23 | 1014.8 |
| 20260506233055 | 60 | 127 | 3.0 | 11.0 | 0.00 | 0.00 | 0.00 | 23 | 1015.0 |
| 20260506231554 | 60 | 149 | 7.0 | 12.0 | 0.00 | 0.00 | 0.00 | 21 | 1015.1 |
| 20260506230045 | 59 | 104 | 2.0 | 14.0 | 0.00 | 0.00 | 0.00 | 22 | 1015.5 |
| 20260506224543 | 60 | 193 | 1.0 | 6.0 | 0.00 | 0.00 | 0.00 | 21 | 1015.7 |
| 20260506223042 | 59 | 151 | 4.0 | 11.0 | 0.00 | 0.00 | 0.00 | 21 | 1016.0 |
| 20260506221539 | 59 | 148 | 2.0 | 8.0 | 0.00 | 0.00 | 0.00 | 21 | 1016.3 |
| 20260506220036 | 58 | 160 | 5.0 | 10.0 | 0.00 | 0.00 | 0.00 | 21 | 1016.8 |
| 20260506214533 | 57 | 133 | 1.0 | 8.0 | 0.00 | 0.00 | 0.00 | 22 | 1017.1 |
| 20260506213033 | 57 | 264 | 4.0 | 10.0 | 0.00 | 0.00 | 0.00 | 21 | 1017.3 |
| 20260506211527 | 56 | 158 | 4.0 | 8.0 | 0.00 | 0.00 | 0.00 | 21 | 1017.9 |
| 20260506210032 | 55 | 222 | 2.0 | 9.0 | 0.00 | 0.00 | 0.00 | 22 | 1018.2 |
| 20260506204523 | 55 | 260 | 2.0 | 12.0 | 0.00 | 0.00 | 0.00 | 23 | 1018.4 |
| 20260506203023 | 55 | 234 | 1.0 | 7.0 | 0.00 | 0.00 | 0.00 | 26 | 1018.7 |
| 20260506201520 | 54 | 196 | 2.0 | 7.0 | 0.00 | 0.00 | 0.00 | 29 | 1018.9 |
| 20260506200015 | 53 | 140 | 4.0 | 14.0 | 0.00 | 0.00 | 0.00 | 30 | 1018.9 |
| 20260506194514 | 53 | 215 | 4.0 | 9.0 | 0.00 | 0.00 | 0.00 | 30 | 1019.2 |
| 20260506193014 | 53 | 21 | 2.0 | 11.0 | 0.00 | 0.00 | 0.00 | 30 | 1019.3 |
| 20260506191610 | 52 | 147 | 3.0 | 11.0 | 0.00 | 0.00 | 0.00 | 32 | 1019.5 |
| 20260506190009 | 51 | 354 | 1.0 | 11.0 | 0.00 | 0.00 | 0.00 | 35 | 1019.7 |
| 20260506184505 | 51 | 111 | 7.0 | 13.0 | 0.00 | 0.00 | 0.00 | 36 | 1019.9 |
| 20260506183003 | 50 | 69 | 2.0 | 10.0 | 0.00 | 0.00 | 0.00 | 37 | 1020.3 |
| 20260506181502 | 50 | 122 | 5.0 | 14.0 | 0.00 | 0.00 | 0.00 | 35 | 1020.6 |
| 20260506174558 | 48 | 310 | 4.0 | 13.0 | 0.00 | 0.00 | 0.00 | 36 | 1021.0 |
| 20260506171605 | 47 | 258 | 3.0 | 9.0 | 0.00 | 0.00 | 0.00 | 37 | 1021.2 |
| 20260506170055 | 47 | 162 | 3.0 | 7.0 | 0.00 | 0.00 | 0.00 | 39 | 1021.4 |
| 20260506164600 | 46 | 163 | 3.0 | 9.0 | 0.00 | 0.00 | 0.00 | 40 | 1021.5 |
| 20260506161619 | 45 | 162 | 3.0 | 7.0 | 0.00 | 0.00 | 0.00 | 43 | 1021.7 |
| 20260506160050 | 44 | 156 | 1.0 | 6.0 | 0.00 | 0.00 | 0.00 | 43 | 1022.0 |
| 20260506154552 | 44 | 129 | 2.0 | 6.0 | 0.00 | 0.00 | 0.00 | 45 | 1022.1 |
| 20260506151548 | 42 | 154 | 0.0 | 3.0 | 0.00 | 0.00 | 0.00 | 49 | 1022.4 |
| 20260506150043 | 40 | 279 | 0.0 | 4.0 | 0.00 | 0.00 | 0.00 | 54 | 1022.6 |
| 20260506144542 | 39 | 204 | 0.0 | 3.0 | 0.00 | 0.00 | 0.00 | 56 | 1022.8 |
| 20260506141535 | 36 | 52 | 0.0 | 1.0 | 0.00 | 0.00 | 0.00 | 64 | 1023.0 |
| 20260506140136 | 36 | 125 | 0.0 | 1.0 | 0.00 | 0.00 | 0.00 | 65 | 1022.9 |
| 20260506134534 | 34 | 36 | 0.0 | 1.0 | 0.00 | 0.00 | 0.00 | 67 | 1022.9 |
| 20260506131544 | 31 | 142 | 0.0 | 1.0 | 0.00 | 0.00 | 0.00 | 73 | 1022.7 |
| 20260506130033 | 29 | 129 | 0.0 | 0.0 | 0.00 | 0.00 | 0.00 | 77 | 1022.5 |
| 20260506124529 | 27 | 129 | 0.0 | 1.0 | 0.00 | 0.00 | 0.00 | 77 | 1022.4 |
| 20260506121527 | 25 | 222 | 0.0 | 0.0 | 0.00 | 0.00 | 0.00 | 79 | 1022.0 |
| 20260506120027 | 26 | 222 | 0.0 | 2.0 | 0.00 | 0.00 | 0.00 | 77 | 1021.9 |
| 20260506114520 | 27 | 234 | 0.0 | 1.0 | 0.00 | 0.00 | 0.00 | 76 | 1021.7 |
| 20260506111521 | 29 | 324 | 0.0 | 1.0 | 0.00 | 0.00 | 0.00 | 75 | 1021.6 |
| 20260506110020 | 29 | 121 | 0.0 | 3.0 | 0.00 | 0.00 | 0.00 | 75 | 1021.8 |
| 20260506104516 | 29 | 111 | 0.0 | 1.0 | 0.00 | 0.00 | 0.00 | 75 | 1021.7 |
| 20260506101522 | 29 | 239 | 2.0 | 4.0 | 0.00 | 0.00 | 0.00 | 74 | 1021.6 |
| 20260506100010 | 30 | 254 | 2.0 | 5.0 | 0.00 | 0.00 | 0.00 | 72 | 1021.4 |
| 20260506094520 | 30 | 208 | 1.0 | 3.0 | 0.00 | 0.00 | 0.00 | 72 | 1021.3 |
| 20260506093013 | 30 | 204 | 0.0 | 4.0 | 0.00 | 0.00 | 0.00 | 69 | 1021.2 |
| 20260506091503 | 32 | 256 | 3.0 | 5.0 | 0.00 | 0.00 | 0.00 | 67 | 1021.1 |
| 20260506084621 | 34 | 230 | 3.0 | 8.0 | 0.00 | 0.00 | 0.00 | 60 | 1021.0 |
| 20260506083056 | 34 | 245 | 3.0 | 7.0 | 0.00 | 0.00 | 0.00 | 58 | 1020.9 |
| 20260506081557 | 34 | 275 | 4.0 | 8.0 | 0.00 | 0.00 | 0.00 | 57 | 1020.9 |
| 20260506073050 | 36 | 313 | 2.0 | 6.0 | 0.00 | 0.02 | 0.00 | 50 | 1020.9 |
| 20260506071545 | 37 | 327 | 5.0 | 8.0 | 0.00 | 0.02 | 0.00 | 49 | 1020.8 |
| 20260506061538 | 38 | 316 | 6.0 | 12.0 | 0.00 | 0.03 | 0.00 | 47 | 1020.4 |
| 20260506044550 | 38 | 309 | 3.0 | 8.0 | 0.00 | 0.03 | 0.03 | 49 | 1019.8 |
| 20260506043022 | 38 | 290 | 1.0 | 9.0 | 0.00 | 0.03 | 0.03 | 60 | 1019.8 |
| 20260506041520 | 38 | 275 | 3.0 | 8.0 | 0.00 | 0.03 | 0.03 | 61 | 1019.7 |
| 20260506034537 | 39 | 286 | 3.0 | 5.0 | 0.00 | 0.03 | 0.03 | 59 | 1019.4 |
| 20260506033012 | 40 | 331 | 2.0 | 8.0 | 0.00 | 0.03 | 0.03 | 45 | 1019.3 |
| 20260506031510 | 41 | 332 | 4.0 | 7.0 | 0.00 | 0.03 | 0.03 | 45 | 1019.0 |
| 20260506024509 | 42 | 348 | 5.0 | 11.0 | 0.00 | 0.03 | 0.03 | 44 | 1018.2 |
| 20260506023005 | 43 | 334 | 7.0 | 14.0 | 0.00 | 0.03 | 0.03 | 44 | 1017.6 |
| 20260506021504 | 43 | 341 | 9.0 | 14.0 | 0.00 | 0.03 | 0.03 | 43 | 1017.4 |